User: anonymous   Login
Location: Caltech
(34.1382°N, 118.1253°W)
Time: 07:15:53
(UTC-07:00)
Language:

FENGYUN 3A - Orbit

View from above orbital plane
View from above orbital plane
View from above satellite
View from above satellite

Ground track
Ground track

The orbit data is extracted from the following two-line orbital elements,

1 32958U 08026A   16148.19353955  .00000034  00000-0  35678-4 0  9993
2 32958  98.4540 189.1841 0008964 328.1811  31.8823 14.19619135414578
Epoch (UTC): 27 May 2016 04:38:41
Eccentricity: 0.0008964
inclination: 98.4540°
perigee height: 820 km
apogee height: 833 km
right ascension of ascending node: 189.1841°
argument of perigee: 328.1811°
revolutions per day: 14.19619135
mean anomaly at epoch: 31.8823°
orbit number at epoch: 41457

The dashed part of the orbit path shows where the satellite is in the earth's shadow,  

DLR